METEOR 2-5 DEB, 35255

Orbit data source: Space-Track

METEOR 2-5 DEB, 35255 is space debris in LEO originally from a launch on Wed, 31 Oct 1979 UTC launched from the Plesetsk Missile And Space Complex (PKMTR). Debris objects in space refer to the collection of defunct objects orbiting the Earth. Examples of debris include non-operational satellites, rocket bodies, and fragments generated from explosions, collisions, or faulty payload assembly.

Loading next visibility...
Identifier
35255, 1979-095W
Orbit
LEO
Country
Flag of CISCIS
Related business
Manufacturer
Unknown
Mission
Spacecraft
Bus & Motor
Unknown
Mass
Unknown
Launch date (UTC)
1979-10-31 (47 years ago)
Launch vehicle
Unknown
Launch site
Plesetsk Missile And Space Complex (PKMTR)
Object type
Payload
Rocket body
Debris
Shape & HBR
Unknown shape, 0.1 m
Radar Cross Section
Small (<0.1 m²)

Expand to show TLE details & history
Last TLE update: 6 days ago

TLE from 6 days ago
0 METEOR 2-5 DEB
1 35255U 79095W   26167.56360953  .00003638  00000-0  10023-2 0  9997
2 35255  81.1991 103.9241 0020623  10.5897 349.5724 14.46625361674407
Epoch: 2026-06-16T13:31Z
TLE epoch observation values (Epoch: 2026-06-16T13:31:35.863Z)
Latitude
0.00001°
Longitude
-3.80917°
Altitude
725.207 km
Speed
7.5 km/s
True Right ascension
06h 55m 41s
True Declination
0° 00' 00"
Sunlit
Object was in daylight at epoch
Visualization orbit readout
Latitude
Unknown
Longitude
Unknown
Altitude
Unknown
Speed
Unknown
Apparent Right ascension
Unknown
Apparent Declination
Unknown
Sunlit
N/A
Visualization observer readout
Local Sidereal Time
00:50:11
Azimuth
Unknown
Elevation
Unknown
Doppler factor
Unknown
Orbital elements
Apogee altitude
748.486 km
Perigee altitude
719.152 km
Semi-major axis
7,111.956 km
Eccentricity
0.00206
Inclination
81.1991°
RAAN
103.9241°
Arg. of periapsis
10.5897°
True anomaly
349.52952°
Mean anomaly
349.5724°
Eccentric anomaly
349.55097°
Mean motion
3.61876 °/min
Orbital period
99.48 mins
BSTAR
0.0010023
Loading maneuver chart data...
Computing Atmospheric mass density...

Documentation

Showing up to 5 results
|